This is the latest recevied weather packets stored in our database for station/object WX0ABE-13. If no packets are shown the sender has not sent any weather packets the latest 10 day(s).
| Time | Temp. | Humidity | Pressure | Rain* | Wind** | Luminosity | Snow |
|---|---|---|---|---|---|---|---|
| 1788014175 | 23.89° C | 56% | 1016.6 hPa | 0 mm | - | 105 W/m² | - |
| 1788013875 | 23.33° C | 57% | 1016.7 hPa | 0 mm | - | 140 W/m² | - |
| 1788013574 | 23.33° C | 57% | 1016.6 hPa | 0 mm | - | 148 W/m² | - |
| 1788013274 | 22.78° C | 62% | 1016.6 hPa | 0 mm | - | 129 W/m² | - |
| 1788012968 | 22.22° C | 62% | 1016.5 hPa | 0 mm | - | 91 W/m² | - |
| 1788012668 | 22.22° C | 64% | 1016.5 hPa | 0 mm | - | 77 W/m² | - |
| 1788012363 | 22.22° C | 62% | 1016.6 hPa | 0 mm | - | 75 W/m² | - |
| 1788012058 | 21.67° C | 62% | 1016.8 hPa | 0 mm | - | 65 W/m² | - |
| 1788011756 | 21.67° C | 62% | 1016.5 hPa | 0 mm | - | 57 W/m² | - |
| 1788011451 | 21.67° C | 63% | 1017.2 hPa | 0 mm | - | 65 W/m² | - |
| 1788011151 | 21.67° C | 62% | 1016.8 hPa | 0 mm | - | 78 W/m² | - |
| 1788010845 | 21.11° C | 64% | 1016.8 hPa | 0 mm | - | 78 W/m² | - |
| 1788010544 | 20.56° C | 66% | 1016.7 hPa | 0 mm | - | 73 W/m² | - |
| 1788010240 | 20.56° C | 66% | 1016.6 hPa | 0 mm | - | 73 W/m² | - |
| 1788009939 | 20° C | 66% | 1016.7 hPa | 0 mm | - | 71 W/m² | - |
| 1788009638 | 20° C | 68% | 1016.7 hPa | 0 mm | - | 62 W/m² | - |
| 1788009333 | 20° C | 68% | 1016.8 hPa | 0 mm | - | 53 W/m² | - |
| 1788009027 | 20° C | 68% | 1016.6 hPa | 0 mm | - | 40 W/m² | - |
| 1788008723 | 19.44° C | 68% | 1016.7 hPa | 0 mm | - | 32 W/m² | - |
| 1788008422 | 19.44° C | 70% | 1016.6 hPa | 0 mm | - | 25 W/m² | - |
| 1788008119 | 19.44° C | 71% | 1016.5 hPa | 0 mm | - | 23 W/m² | - |
| 1788007818 | 19.44° C | 71% | 1016.6 hPa | 0 mm | - | 18 W/m² | - |
| 1788007518 | 19.44° C | 70% | 1016.6 hPa | 0 mm | - | 14 W/m² | - |
| 1788007218 | 19.44° C | 69% | 1016.4 hPa | 0 mm | - | 12 W/m² | - |
| 1788006916 | 19.44° C | 69% | 1016.4 hPa | 0 mm | - | 10 W/m² | - |
* Rain latest hour (hover to see other rain measurements)
** Current wind speed in m/s (hover to see current wind gust speed)